Погода в Риге

Погода в Риге : погода сейчас, прогноз погоды и архив. Всё, что Вы хотите узнать о погоде в Риге!

Поиск расширенной информации на нашем сайте:

Другие новости

Новости СМИ2

Главная страница сайта

Новости сайта

02.10.2013

Напоминаем, что на нашем новом сайте вы можете получить высокодетализированные прогнозы погоды по пунктам России, СНГ и мира (включающие важные для авиации метеовеличины, такие как направление и скорость ветра, видимость, явления погоды, количество и форма облачности, нижняя и верхняя граница облачности), а также ознакомиться с разнообразными материалами по авиационной метеорологии и подборкой полезных ссылок на эту тему.

Сайт Метеоцентр.Азия посвящён разработке технологий оптимизации авиаметеорологического обслуживания, включая проектирование и перспективное создание нескольких автоматизированных авиаметеорологических систем:
- система выпуска высокодетальных прогностических карт явлений погоды для нижнего воздушного пространства по России и ближнему зарубежью;
- система верификации прогнозов TAF (выпускаемых синоптиками официальных АМСГ РФ и ближнего зарубежья) и AUTOTAF (выпускаемых сайтом Метеоцентр.Азия) - выявление ошибок, онлайн-сопоставление с фактической погодой METAR, автоматическое внесение коррективов в прогнозы при резком отклонении фактической погоды от прогноза, подсчёт оправдываемости прогнозов по элементам и в целом;
- система обработки, анализа и отображения авиаметеорологической информации для применения провайдерами метеорологической информации.


Погода в Риге - сегодня

Время (UTC), дата Ветер
(°,м/с) 
Видим.   Явления Облачность Т
(°С)
Тd
(°С)
f(%) Тe
(°С)
Pmin
(гПа)
dP
(гПа)
Po
(мм)
O2
(г/м3)
Тmin Tmax R s Состояние
почвы
18 19.06.17 300 (СЗ) 4{12}  20000 м    9/0 верхняя 
[Ci fib]
+19 +11.7 63 +22  1013.7  -0.1  760  283    +25.4       
21 19.06.17 300 (СЗ) 10 км    3/0 верхняя 
[Cu hum|Ci fib]
+15.6 +12.6 82 +21  1013.7  760  287           
00 20.06.17 150 (ЮВ) 10 км    8/0 средняя, верхняя 
[Ac und|Ci fib]
+14.8 +12.4 86 +19  1011.8  -1.9  756  286           
03 20.06.17 180 (Ю) 10 км    9/0 средняя, верхняя 
[Sc|Ac cast|Ci fib]
+14 +11.6 85 +16  1008.7  -3.1  756  287           
06 20.06.17 190 (Ю) 10 км    9/0 средняя, верхняя 
[Cu med, cong|Ac und|Ci fib]
+18.8 +14.4 76 +27  1006.2  -2.4  754  281  +13.7         
09 20.06.17 230 (ЮЗ) 4{11}  10 км  слаб. ливневой дождь  10/0 кучево-дожд., средняя 
[Cb cap|Ac und]
+19.1 +17.3 89 +33  1004.1  -2.1  752  279           
12 20.06.17 300 (СЗ) 6-11{18}  20000 м  в посл. час ливневой дождь  9/0 кучево-дожд., средняя, верхняя 
[Cb calv|Ac und|Ci fib]
+17.9 +15.6 86 +28  1004  -0.1  750  280           
15 20.06.17 320 (СЗ) 8-15{15}  20000 м    5/0 
[Cu Sc]
+16.8 +11.2 70 +19  1005.5  1.4  754  283           
18 20.06.17 290 (З) 7-11{17}  20000 м    3/0 
[Cu Sc]
+14.5 +6.8 60 +14  1007.2  1.7  755  287    +21.6     
21 20.06.17 270 (З) 3{14}  10 км    1/0 
[Sc]
+13.6 +7.7 67 +14  1007.7  0.5  755  288           
00 21.06.17 230 (ЮЗ) 2{14}  10 км    ясно 
+11.7 +8.5 81 +12  1007.2  -0.5  752  289           
03 21.06.17 250 (З) 10 км    3/0 средняя 
[Ac trans]
+10.7 +9.1 90 +11  1007.2  -0.1  755  290           
06 21.06.17 280 (З) 5{10}  20000 м    8/0 средняя 
[Cu Sc|Ac und]
+15 +9.7 71 +16  1007.4  0.3  755  286  +10.4         
09 21.06.17 270 (З) 4{10}  20000 м    8/0 кучево-дожд., средняя 
[Cb calv|Ac und]
+16.7 +7.8 56 +17  1007.8  0.4  755  285           
12 21.06.17 320 (СЗ) 7-13{15}  20000 м  {гроза, ливн. осадки}  5/0 средняя 
[Sc diur, vesp|Ac cuf]
+16.4 +8.3 59 +16  1008.2  0.4  753  285           
15 21.06.17 300 (СЗ) 7-13{19}  20000 м    6/0 верхняя 
[Sc diur, vesp|Ci]
+14.8 +6.5 58 +14  1009.7  1.5  757  288           
18 21.06.17 290 (З) 6-11{19}  20000 м    5/0 средняя, верхняя 
[Sc diur, vesp|Ac lent|Ci]
+13.8 +6.6 62 +13  1010.2  0.5  757  289    +17.4  0.1     
21 21.06.17 290 (З) 4{11}  10 км    3/0 средняя, верхняя 
[Ac trans|Ci fib]
+13.1 +6.8 66 +13  1010.8  0.6  757  289           
00 22.06.17 260 (З) 3{11}  10 км    ясно 
+10.6 +7.2 79 +10  1010.8  -0.1  755  292           
03 22.06.17 200 (Ю) 10 км    8/0 средняя 
[Ac und]
+10.1 +7.8 86 +10  1010.4  -0.4  757  292           
06 22.06.17 180 (Ю) 10 км  слаб. ливневой дождь  10/0 кучево-дожд., средняя 
[Cb cap|Ac und]
+12 +9.5 85 +13  1009.9  -0.5  757  290  +9.7    0.0     
09 22.06.17 290 (З) 20000 м  {ливн. осадки}  9/0 кучево-дожд., средняя, верхняя 
[Cb calv|Ac und|Ci fib]
+17.3 +9.1 59 +18  1009.2  -0.6  756  284           
12 22.06.17 270 (З) 4{12}  20000 м  в посл. час ливневой дождь{гроза}  8/0 кучево-дожд., средняя 
[Cb calv|Ac und]
+16 +9.3 64 +16  1008.8  -0.4  754  285           
15 22.06.17 310 (СЗ) 20000 м    5/0 средняя 
[Sc diur, vesp|Ac und]
+18.1 +5.2 43 +19  1008.6  -0.2  756  284           
18 22.06.17 330 (СЗ) 3{10}  20000 м    8/0 средняя 
[Sc|Ac und]
+15.8 +6.2 53 +16  1008.3  -0.3  756  286    +18.4     
Время (UTC), дата Ветер
(°,м/с) 
Видим.   Явления Облачность Т
(°С)
Тd
(°С)
f(%) Тe
(°С)
Pmin
(гПа)
dP
(гПа)
Po
(мм)
O2
(г/м3)
Тmin Tmax R s Состояние
почвы

Для получения пояснительной информации подведите курсор к названию столбца.

ПОГОДА в Риге - архив

Всё, что Вы хотите узнать о погоде в Риге - удобно и подробно!

Выберите нужную дату (начиная с 1 января 2015* года) и нажмите кнопку "Найти".
Будут отображены архивные сводки погоды по пункту Рига, начиная с указанной даты.


Отображать данные в формате CSV (для использования в таблицах Excel)


Внимание! Наш архив погоды предназначен исключительно для личного некоммерческого использования в познавательных целях. Если Вам необходимы официальные справки о состоянии погоды (для производственных, юридических, коммерческих и т.п. целей), обращайтесь в органы Росгидромета.

*Примечание: данная дата относится к архиву по метеостанциям СССР (Россия, СНГ, Балтия).
Архив по метеостанциям Зарубежной Европы и Азии (кроме Китая) хранится 10 дней, по другим регионам земного шара (Китай, Африка, Америка, Австралия, Океания) - 1 день.

Рига - район местоположения метеостанции


Название, широта, долгота, высота метеостанции:
Рига 57°ш. 24.1°д. 7 м над ур. моря [Латвия]

Дополнительная информация

В oтличие oт бoльшинства пoгoдных сайтoв мы публикуем пoдрoбную метеoинфoрмацию в детальнoм прoфессиoнальнoм фoрмате.

Характеристики температуры и влажнoсти вoздуха измеряются на высoте 2 м в тени вдали oт зданий и деревьев.
Скoрoсть ветра измеряется на высoте 10 м (на урoвне рoста челoвека скoрoсть ветра ниже в 1.5-2 раза). Если метеoстанция нахoдится в гoрoде или в лесу, тo скoрoсть ветра занижена на 2-4 м/с пo сравнению с oткрытым местoм. Скoрoсть ветра над акватoриями крупных рек и oзёр, а также на вершинах хoлмoв на 2-5 м/с выше, чем в oбычных услoвиях.
Атмoсфернoе давление в разных тoчках местнoсти мoжет значительнo oтличаться oт давления на метеoстанции, в зависимoсти oт услoвий рельефа (при пoдъёме на 10 м давление пoнижается примернo на 1 мм рт.ст.).